When you browse on this site, cookies collect data to enhance your experience and personalize the content and advertising you see.
Visit our Privacy Policy to learn more. By continuing to use the site, you agree to this use of cookies and data.
  • In Germany
  • List of Countries
  • For 7 days
  • Water Temperature
  • Satellite Maps
  • Weather Map
  • Weather Widgets
  • user-avatar
    Login

    Hourly Weather Hajfa

    Today, 19 December, Wednesday

    Time Temperature Precipitation Wind Pressure Humidity
    00:00 +15°C° 0 mm 4 mps 761 mmHg 78%
    01:00 +15°C° 0 mm 4 mps 760 mmHg 76%
    02:00 +15°C° 0 mm 4 mps 760 mmHg 75%
    03:00 +14°C° 0.1 mm 5 mps 760 mmHg 74%
    04:00 +14°C° 0.1 mm 5 mps 760 mmHg 74%
    05:00 +14°C° 0.1 mm 6 mps 760 mmHg 73%
    06:00 +14°C° 0.5 mm 6 mps 760 mmHg 71%
    07:00 +15°C° 0.5 mm 6 mps 760 mmHg 69%
    08:00 +15°C° 0.5 mm 6 mps 760 mmHg 67%
    09:00 +16°C° 1 mm 7 mps 759 mmHg 65%
    10:00 +17°C° 1 mm 7 mps 759 mmHg 63%
    11:00 +18°C° 1 mm 8 mps 759 mmHg 61%
    12:00 +18°C° 1 mm 8 mps 759 mmHg 64%
    13:00 +18°C° 1 mm 8 mps 758 mmHg 66%
    14:00 +17°C° 1 mm 8 mps 758 mmHg 68%
    15:00 +17°C° 0.7 mm 7 mps 758 mmHg 70%
    16:00 +16°C° 0.7 mm 7 mps 758 mmHg 71%
    17:00 +16°C° 0.7 mm 7 mps 758 mmHg 73%
    18:00 +15°C° 1.4 mm 7 mps 758 mmHg 75%
    19:00 +15°C° 1.4 mm 7 mps 758 mmHg 77%
    20:00 +15°C° 1.4 mm 6 mps 758 mmHg 78%
    21:00 +14°C° 2.4 mm 7 mps 758 mmHg 81%
    22:00 +14°C° 2.4 mm 7 mps 758 mmHg 83%
    23:00 +14°C° 2.4 mm 7 mps 758 mmHg 85%

    Tomorrow, 20 December, Thursday

    Time Temperature Precipitation Wind Pressure Humidity
    00:00 +13°C° 2.4 mm 8 mps 758 mmHg 84%
    01:00 +13°C° 2.4 mm 8 mps 758 mmHg 83%
    02:00 +13°C° 2.4 mm 9 mps 758 mmHg 82%
    03:00 +13°C° 1.3 mm 8 mps 758 mmHg 81%
    04:00 +14°C° 1.3 mm 7 mps 758 mmHg 81%
    05:00 +14°C° 1.3 mm 7 mps 758 mmHg 81%
    06:00 +14°C° 0.8 mm 6 mps 759 mmHg 80%
    07:00 +14°C° 0.8 mm 5 mps 759 mmHg 80%
    08:00 +14°C° 0.8 mm 5 mps 760 mmHg 80%
    09:00 +15°C° 0.3 mm 5 mps 760 mmHg 76%
    10:00 +16°C° 0.3 mm 5 mps 760 mmHg 73%
    11:00 +17°C° 0.3 mm 5 mps 760 mmHg 70%
    12:00 +17°C° 0.2 mm 5 mps 760 mmHg 68%
    13:00 +18°C° 0.2 mm 4 mps 760 mmHg 66%
    14:00 +19°C° 0.2 mm 4 mps 760 mmHg 65%
    15:00 +18°C° 0.2 mm 4 mps 760 mmHg 68%
    16:00 +17°C° 0.2 mm 3 mps 761 mmHg 72%
    17:00 +17°C° 0.2 mm 3 mps 761 mmHg 75%
    18:00 +16°C° 0.2 mm 3 mps 761 mmHg 77%
    19:00 +16°C° 0.2 mm 3 mps 762 mmHg 79%
    20:00 +15°C° 0.2 mm 2 mps 762 mmHg 81%
    21:00 +15°C° 0.1 mm 2 mps 762 mmHg 82%
    22:00 +15°C° 0.1 mm 2 mps 763 mmHg 84%
    23:00 +15°C° 0.1 mm 2 mps 763 mmHg 85%

    Day after tomorrow, 21 December, Friday

    Time Temperature Precipitation Wind Pressure Humidity
    00:00 +14°C° 0.1 mm 2 mps 763 mmHg 86%
    01:00 +14°C° 0.1 mm 2 mps 763 mmHg 87%
    02:00 +14°C° 0.1 mm 2 mps 763 mmHg 87%
    03:00 +14°C° 0 mm 2 mps 763 mmHg 87%
    04:00 +14°C° 0 mm 1 mps 763 mmHg 87%
    05:00 +14°C° 0 mm 1 mps 763 mmHg 86%
    06:00 +14°C° 0 mm 1 mps 764 mmHg 84%
    07:00 +15°C° 0 mm 1 mps 764 mmHg 82%
    08:00 +15°C° 0 mm 1 mps 765 mmHg 79%
    09:00 +16°C° 0 mm 1 mps 765 mmHg 73%
    10:00 +18°C° 0 mm 1 mps 765 mmHg 67%
    11:00 +19°C° 0 mm 1 mps 765 mmHg 61%
    12:00 +20°C° 0 mm 1 mps 764 mmHg 60%
    13:00 +19°C° 0 mm 2 mps 764 mmHg 59%
    14:00 +19°C° 0 mm 2 mps 764 mmHg 58%
    15:00 +18°C° 0 mm 2 mps 764 mmHg 62%
    16:00 +17°C° 0 mm 2 mps 764 mmHg 67%
    17:00 +16°C° 0 mm 1 mps 764 mmHg 71%
    18:00 +16°C° 0 mm 1 mps 764 mmHg 73%
    19:00 +16°C° 0 mm 1 mps 765 mmHg 74%
    20:00 +14°C° 0 mm 0 mps 765 mmHg 76%
    21:00 +14°C° 0 mm 0 mps 765 mmHg 76%
    22:00 +14°C° 0 mm 0 mps 765 mmHg 77%
    23:00 +13°C° 0 mm 0 mps 764 mmHg 77%

    22 December, Saturday

    Time Temperature Precipitation Wind Pressure Humidity
    00:00 +13°C° 0 mm 0 mps 764 mmHg 78%
    01:00 +14°C° 0 mm 1 mps 764 mmHg 79%
    02:00 +14°C° 0 mm 1 mps 764 mmHg 79%
    03:00 +14°C° 0 mm 1 mps 764 mmHg 80%
    04:00 +14°C° 0 mm 1 mps 764 mmHg 80%
    05:00 +13°C° 0 mm 1 mps 764 mmHg 80%
    06:00 +14°C° 0.1 mm 1 mps 764 mmHg 78%
    07:00 +14°C° 0.1 mm 1 mps 764 mmHg 76%
    08:00 +15°C° 0.1 mm 2 mps 764 mmHg 74%
    09:00 +16°C° 0.1 mm 2 mps 764 mmHg 70%
    10:00 +18°C° 0.1 mm 1 mps 764 mmHg 66%
    11:00 +19°C° 0.1 mm 1 mps 764 mmHg 62%
    12:00 +18°C° 0.1 mm 2 mps 763 mmHg 62%
    13:00 +19°C° 0.1 mm 2 mps 763 mmHg 62%
    14:00 +19°C° 0.1 mm 2 mps 762 mmHg 62%
    15:00 +18°C° 0.1 mm 2 mps 762 mmHg 67%
    16:00 +17°C° 0.1 mm 2 mps 762 mmHg 71%
    17:00 +16°C° 0.1 mm 2 mps 762 mmHg 76%
    18:00 +16°C° 0 mm 2 mps 763 mmHg 77%
    19:00 +16°C° 0 mm 2 mps 763 mmHg 78%
    20:00 +15°C° 0 mm 2 mps 763 mmHg 79%
    21:00 +15°C° 0 mm 2 mps 763 mmHg 80%
    22:00 +15°C° 0 mm 2 mps 763 mmHg 80%
    23:00 +15°C° 0 mm 1 mps 763 mmHg 81%

    23 December, Sunday

    Time Temperature Precipitation Wind Pressure Humidity
    00:00 +15°C° 0 mm 1 mps 763 mmHg 81%
    01:00 +14°C° 0 mm 1 mps 763 mmHg 82%
    02:00 +14°C° 0 mm 1 mps 763 mmHg 82%
    03:00 +14°C° 0 mm 1 mps 763 mmHg 83%
    04:00 +14°C° 0 mm 1 mps 763 mmHg 83%
    05:00 +14°C° 0 mm 1 mps 763 mmHg 84%
    06:00 +14°C° 0 mm 1 mps 763 mmHg 83%
    07:00 +15°C° 0 mm 1 mps 764 mmHg 82%
    08:00 +15°C° 0 mm 1 mps 764 mmHg 81%
    09:00 +16°C° 0 mm 1 mps 764 mmHg 76%
    10:00 +18°C° 0 mm 1 mps 764 mmHg 70%
    11:00 +19°C° 0 mm 1 mps 764 mmHg 65%
    12:00 +18°C° 0 mm 2 mps 764 mmHg 64%
    13:00 +19°C° 0 mm 2 mps 763 mmHg 62%
    14:00 +19°C° 0 mm 3 mps 763 mmHg 61%
    15:00 +18°C° 0 mm 3 mps 763 mmHg 64%
    16:00 +17°C° 0 mm 2 mps 763 mmHg 67%
    17:00 +16°C° 0 mm 2 mps 763 mmHg 70%
    18:00 +16°C° 0 mm 2 mps 763 mmHg 71%
    19:00 +16°C° 0 mm 2 mps 763 mmHg 72%
    20:00 +15°C° 0 mm 1 mps 764 mmHg 74%
    21:00 +15°C° 0 mm 1 mps 764 mmHg 74%
    22:00 +15°C° 0 mm 1 mps 764 mmHg 75%
    23:00 +14°C° 0 mm 1 mps 764 mmHg 76%

    24 December, Monday

    Time Temperature Precipitation Wind Pressure Humidity
    00:00 +14°C° 0 mm 1 mps 764 mmHg 77%
    01:00 +14°C° 0 mm 1 mps 763 mmHg 77%
    02:00 +14°C° 0 mm 1 mps 763 mmHg 78%
    03:00 +13°C° 0 mm 1 mps 763 mmHg 78%
    04:00 +13°C° 0 mm 1 mps 763 mmHg 79%
    05:00 +13°C° 0 mm 1 mps 763 mmHg 79%
    06:00 +14°C° 0 mm 1 mps 763 mmHg 78%
    07:00 +14°C° 0 mm 1 mps 764 mmHg 76%
    08:00 +15°C° 0 mm 1 mps 764 mmHg 74%
    09:00 +16°C° 0 mm 1 mps 764 mmHg 69%
    10:00 +18°C° 0 mm 1 mps 763 mmHg 64%
    11:00 +19°C° 0 mm 1 mps 763 mmHg 59%
    12:00 +19°C° 0 mm 1 mps 763 mmHg 59%
    13:00 +18°C° 0 mm 2 mps 762 mmHg 58%
    14:00 +19°C° 0 mm 2 mps 762 mmHg 57%
    15:00 +18°C° 0 mm 2 mps 762 mmHg 61%
    16:00 +17°C° 0 mm 2 mps 762 mmHg 65%
    17:00 +16°C° 0 mm 1 mps 762 mmHg 68%
    18:00 +15°C° 0 mm 1 mps 762 mmHg 70%
    19:00 +15°C° 0 mm 1 mps 762 mmHg 71%
    20:00 +15°C° 0 mm 1 mps 763 mmHg 72%
    21:00 +14°C° 0 mm 1 mps 763 mmHg 73%
    22:00 +14°C° 0 mm 1 mps 762 mmHg 74%
    23:00 +13°C° 0 mm 0 mps 762 mmHg 74%
    Show more